Home > Weather > Fort Smith > Past weeks

Flag for Canada Past Weather in Fort Smith, Northwest Territories, Canada — Yesterday and Last 2 Weeks

Now
72 °F

Partly sunny.


Feels Like: 76 °F
Forecast: 61 / 71 °F
Wind: 2 mph from North

Location: Fort Smith

Current Time: Jul 29, 2016 at 9:40:45 PM

Latest Report: Jul 29, 2016 at 9:00 PM


Visibility: 15 mi

Pressure: 29.70 "Hg

Humidity: 57%

Dew Point: 55 °F

Location of Fort SmithLocation

Past Weather in Fort Smith — Graph

°F

Fort Smith Temperature Yesterday

Maximum temperature yesterday: 79 °F (at 4:00 PM)
Minimum temperature yesterday: 55 °F (at 5:00 AM)
Average temperature yesterday: 68 °F

High & Low Weather Summary for the Past Weeks

 TemperatureHumidityPressure
High86 °F (Jul 18, 2:00 PM)100% (Jul 20, 11:00 PM)30.11 "Hg (Jul 20, 11:00 PM)
Low41 °F (Jul 22, 12:00 AM)31% (Jul 15, 5:00 PM)29.51 "Hg (Jul 24, 11:00 AM)
Average64 °F68%29.84 "Hg
* Reported Jul 14 8:00 PM — Jul 29 8:00 PM, Fort Smith, Weather by CustomWeather, © 2016

Note: Actual official high and low records may vary slightly from our data, if they occured in-between our weather recording intervals... More about our weather records

Advertising

Fort Smith Weather History for the Previous 24 Hours

Scroll right to see more
 ConditionsComfort  
Time TempWeatherWind HumidityBarometerVisibility
8:00 PM
Fri, Jul 29
77 °FPassing clouds.6 mph47%29.71 "Hg15 mi
7:00 PM79 °FPartly sunny.8 mph48%29.72 "Hg15 mi
6:00 PM81 °FPartly sunny.12 mph42%29.72 "Hg15 mi
5:00 PM82 °FBroken clouds.13 mph37%29.72 "Hg15 mi
4:00 PM81 °FBroken clouds.14 mph39%29.73 "Hg15 mi
3:00 PM82 °FBroken clouds.16 mph37%29.74 "Hg15 mi
2:00 PM81 °FBroken clouds.10 mph37%29.75 "Hg15 mi
1:00 PM79 °FPartly sunny.13 mph45%29.77 "Hg15 mi
12:00 PM77 °FPartly sunny.10 mph47%29.79 "Hg15 mi
11:00 AM75 °FBroken clouds.8 mph54%29.80 "Hg15 mi
10:00 AM72 °FPartly sunny.8 mph61%29.83 "Hg15 mi
9:00 AM68 °FScattered clouds.7 mph73%29.84 "Hg15 mi
8:00 AM66 °FScattered clouds.7 mph78%29.85 "Hg15 mi
7:00 AM63 °FScattered clouds.9 mph83%29.85 "Hg15 mi
6:00 AM61 °FScattered showers. Passing clouds.7 mph88%29.86 "Hg15 mi
5:00 AM61 °FScattered showers. Passing clouds.8 mph88%29.88 "Hg15 mi
4:00 AM63 °FPassing clouds.5 mph77%29.89 "Hg15 mi
3:00 AM61 °FPartly cloudy.2 mph83%29.90 "Hg15 mi
2:00 AM64 °FPartly cloudy.7 mph73%29.91 "Hg15 mi
1:00 AM64 °FPassing clouds.8 mph73%29.91 "Hg15 mi
12:00 AM66 °FPartly cloudy.8 mph68%29.92 "Hg15 mi
11:00 PM
Thu, Jul 28
68 °FPartly sunny.7 mph69%29.93 "Hg15 mi
10:00 PM70 °FPartly sunny.6 mph60%29.93 "Hg15 mi
9:00 PM73 °FPartly sunny.3 mph53%29.93 "Hg15 mi
Weather by CustomWeather, © 2016

See weather overviewHow to use our weather pages